Current Version              Previous Version:    01  02  03  04  05  06  07  08  09  10  11  12  13  14  15  16  17  18  19  20  21  22  23  24  25  26  27  28  29  30  
   31  32  33  34  35  36  37  38  39  40  41  42  43  44  45  46  47  48  49  50  51  52  53  54  55  56  57  58  59  60  

[Printable]
320
ASUS44 KFWD 210301
RWRTX
NORTH TEXAS HOURLY WEATHER ROUNDUP
NATIONAL WEATHER SERVICE FORT WORTH TX
1000 PM CDT SUN APR 20 2014

NOTE: "FAIR" INDICATES FEW OR NO CLOUDS BELOW 12,000 FEET WITH NO
SIGNIFICANT WEATHER AND/OR OBSTRUCTIONS TO VISIBILITY.

TXZ118-119-210400-
DALLAS/FORT WORTH METROPLEX

CITY           SKY/WX    TMP DP  RH WIND       PRES   REMARKS
DFW AIRPORT    LGT RAIN  63  61  93 CALM      30.08R FOG
DALLAS LOVE    LGT RAIN  64  61  90 E5        30.07R
FTW MEACHAM    LGT RAIN  63  62  97 E7        30.07R FOG
DAL-EXECUTIVE  LGT RAIN  65  62  90 E5        30.07S
FTW-ALLIANCE   LGT RAIN  61  60  97 E6        30.07R FOG
FTW-NAS-JRB    CLOUDY    66  61  84 E12       30.11R
FTW-SPINKS     DRIZZLE   63  62  95 CALM      30.09R
ARLINGTON      LGT RAIN  65  63  93 CALM      30.08R FOG
GRAND PRAIRIE  CLOUDY    63  63 100 E5        30.10R
ADDISON        RAIN      63  59  88 NE7       30.08S
MESQUITE       CLOUDY    62  60  93 CALM      30.09R
LANCASTER      RAIN      64  60  89 CALM      30.09R
$$

TXZ091>094-102>105-117-120-121-131>134-210400-
NORTH CENTRAL TEXAS

CITY           SKY/WX    TMP DP  RH WIND       PRES   REMARKS
BRIDGEPORT     TSTM      60  60 100 E6        30.08R
DECATUR        CLOUDY    59  59  99 E7        30.07S FOG
DENTON         LGT RAIN  61  59  93 E10       30.07R
MCKINNEY       RAIN      62  60  93 E6        30.08R
GREENVILLE     RAIN      63  57  82 CALM      30.09R
ROCKWALL       HVY RAIN  62  60  94 N6        30.08R
TERRELL        LGT RAIN  65  63  93 N7        30.09R
WAXAHACHIE     DRIZZLE   63  61  94 NE6       30.08F
CLEBURNE       RAIN      64  64 100 E6        30.09R
GRANBURY       CLOUDY    67  64  92 E6        30.06S
$$

TXZ083>090-098>101-113>116-127>130-139>142-154-155-210400-
WESTERN NORTH TEXAS

CITY           SKY/WX    TMP DP  RH WIND       PRES   REMARKS
WICHITA FALLS  PTCLDY    60  59  96 SE13      30.00S
VERNON         CLOUDY    64  60  86 SE15      30.00R
ABILENE        CLOUDY    66  62  87 S14       30.01S
ABILENE-DYESS  CLOUDY    66  63  90 S18       30.01R
BRECKENRIDGE   CLOUDY    66  65  96 SE8       30.04R
MINERAL WELLS  LGT RAIN  64  63  96 SE7       30.04R FOG
STEPHENVILLE   CLOUDY    65  62  91 S7        30.08R
COMANCHE       CLOUDY    64  64  97 S7        30.05S
BROWNWOOD      CLOUDY    64  64 100 SE6       30.06S
$$

TXZ143>147-156>162-174-175-210400-
CENTRAL TEXAS

CITY           SKY/WX    TMP DP  RH WIND       PRES   REMARKS
WACO           CLOUDY    69  63  81 CALM      30.05R
WACO-TSTC      CLOUDY    70  61  73 CALM      30.05R
WACO-MCGREGOR  MOCLDY    66  61  82 S3        30.07R
CORSICANA      LGT RAIN  68  61  78 CALM      30.08R
MEXIA          CLOUDY    69  57  64 SE3       30.06R
HEARNE         CLOUDY    73  55  54 SE3       30.07R
TEMPLE         CLOUDY    70  55  60 S7        30.09R
KILLEEN        NOT AVBL
KILLEEN-SKYLRK CLEAR    N/A N/A N/A CALM      30.06R
HAMILTON       CLOUDY    65  65 100 S8        30.07R
LAMPASAS       CLOUDY    67  64  90 SE3       30.06S
$$

TXZ095>097-106>112-122>126-135>138-148>153-164>167-210400-
EAST TEXAS

CITY           SKY/WX    TMP DP  RH WIND       PRES   REMARKS
PARIS          CLOUDY    63  55  77 NW8       30.12R
MINEOLA        CLOUDY    68  63  83 CALM      30.09R
TYLER          PTCLDY    68  57  68 CALM      30.07R
LONGVIEW       CLOUDY    69  59  70 S3        30.06R
ATHENS         CLOUDY    66  59  77 CALM      30.06R
PALESTINE      CLOUDY    72  56  57 SE3       30.09R
JACKSONVILLE   CLEAR     69  53  57 S3        30.10R
NACOGDOCHES    CLEAR     66  55  68 SW6       30.09R
LUFKIN         CLEAR     72  53  51 S6        30.09R
$$

SUPPLEMENTAL OBSERVATIONS (CENTRAL)

CITY           SKY/WX    TMP DP  RH WIND       PRES   REMARKS
$$

SUPPLEMENTAL OBSERVATIONS (WEST)

CITY           SKY/WX    TMP DP  RH WIND       PRES   REMARKS
$$

SUPPLEMENTAL OBSERVATIONS (EAST)

CITY           SKY/WX    TMP DP  RH WIND       PRES   REMARKS
$$

SUPPLEMENTAL OBSERVATIONS ARE A COLLECTION OF AUTOMATED INSTRUMENTS
THAT ARE MAINTAINED BY A VARIETY OF FEDERAL AND STATE AGENCIES.
CERTAIN ELEMENTS...SUCH AS HUMIDITY VALUES AND SUSTAINED WIND
SPEEDS...MAY BE APPROXIMATED.